EW5186 Weather Reports


Display with metric or nautical units.
time (UTC)temp
F
wind
direction
speed
MPH
gust
MPH
rain 1hr
in
rain 24hr
in
rain mn
in
humidity
%
barometer
mb
20240524094515 56 50 0.0 0.0 0.01 0.82 0.01 97 1012.1
20240524093013 56 50 0.0 0.0 0.00 0.81 0.00 97 1012.2
20240524091557 56 50 0.0 0.0 0.00 0.81 0.00 97 1012.1
20240524090054 56 50 0.0 0.0 0.00 0.81 0.00 96 1012.1
20240524084539 57 50 0.0 0.0 0.00 0.81 0.00 96 1012.1
20240524083035 58 50 0.0 0.0 0.00 0.81 0.00 97 1012.2
20240524081515 59 50 0.0 0.0 0.00 0.81 0.00 97 1012.2
20240524080025 59 50 0.0 0.0 0.00 0.81 0.00 97 1012.3
20240524074556 58 50 0.0 0.0 0.00 0.81 0.00 97 1012.4
20240524073055 57 50 0.0 0.0 0.00 0.81 0.00 97 1012.1
20240524071539 57 50 0.0 0.0 0.00 0.81 0.00 97 1012.1
20240524070037 58 50 0.0 0.0 0.00 0.81 0.00 96 1012.2
20240524064517 58 50 0.0 0.0 0.00 0.81 0.00 97 1012.2
20240524063025 59 50 0.0 0.0 0.00 0.81 0.00 96 1012.1
20240524061557 59 50 0.0 0.0 0.00 0.81 0.00 97 1012.1
20240524060056 59 50 0.0 0.0 0.00 0.81 0.00 96 1012.0
20240524054548 60 50 0.0 0.0 0.00 0.81 0.00 96 1012.1
20240524053035 60 49 0.0 0.0 0.00 0.81 0.00 96 1012.1
20240524051530 60 50 0.0 0.0 0.00 0.81 0.00 96 1012.2
20240524050018 61 49 0.0 0.0 0.00 0.81 0.00 96 1012.3
20240524044555 62 49 0.0 0.0 0.00 0.81 0.00 96 1012.3
20240524043054 62 50 0.0 0.0 0.00 0.81 0.00 95 1012.2
20240524041537 63 49 0.0 0.0 0.00 0.81 0.00 96 1012.4
20240524040030 63 50 0.0 0.0 0.00 0.81 0.81 95 1012.2
20240524034518 63 49 0.0 0.0 0.00 0.81 0.81 96 1012.3
20240524033018 64 50 0.0 0.0 0.00 0.81 0.81 95 1012.3
20240524031517 64 50 0.0 0.0 0.00 0.81 0.81 95 1012.2
20240524030016 64 49 0.0 1.0 0.00 0.81 0.81 95 1012.2
20240524024519 64 181 0.0 0.0 0.00 0.81 0.81 95 1012.2
20240524023116 65 181 0.0 0.0 0.00 0.81 0.81 94 1012.3
20240524021528 65 83 0.0 0.0 0.00 0.81 0.81 94 1012.2
20240524020014 66 83 0.0 1.0 0.00 0.81 0.81 93 1012.2
20240524014511 67 83 0.0 1.0 0.00 0.81 0.81 93 1012.2
20240524013037 67 84 0.0 1.0 0.00 0.81 0.81 93 1012.1
20240524011559 67 82 0.0 1.0 0.00 0.81 0.81 92 1011.9
20240524010100 67 82 0.0 1.0 0.00 0.81 0.81 92 1011.8
20240524004603 68 72 0.0 1.0 0.00 0.81 0.81 91 1011.6
20240524003057 68 117 0.0 1.0 0.00 0.81 0.81 91 1011.4
20240524001557 69 128 0.0 1.0 0.00 0.81 0.81 91 1011.4
20240524000102 70 131 0.0 0.0 0.00 0.81 0.81 89 1011.4
20240523234612 71 132 0.0 1.0 0.00 0.81 0.81 88 1011.4
20240523233056 71 230 0.0 1.0 0.00 0.81 0.81 87 1011.3
20240523231555 72 230 0.0 1.0 0.00 0.81 0.81 85 1011.4
20240523230036 72 160 0.0 1.0 0.00 0.81 0.81 85 1011.5
20240523224536 73 220 0.0 1.0 0.00 0.81 0.81 84 1011.7
20240523223037 73 174 0.0 2.0 0.00 0.81 0.81 83 1011.6
20240523221518 73 148 0.0 3.0 0.00 0.81 0.81 84 1011.6
20240523220112 73 248 0.0 3.0 0.00 0.81 0.81 83 1011.6
20240523214600 74 138 1.0 4.0 0.00 0.81 0.81 81 1011.5
20240523213050 76 226 0.0 7.0 0.00 0.81 0.81 80 1011.5
20240523211549 77 161 0.0 3.0 0.00 0.81 0.81 81 1011.3
20240523210049 77 297 0.0 4.0 0.00 0.81 0.81 80 1011.5
20240523204549 78 242 0.0 4.0 0.00 0.81 0.81 77 1011.3
20240523203046 77 269 0.0 3.0 0.00 0.81 0.81 79 1011.3
20240523201545 76 310 0.0 5.0 0.00 0.81 0.81 80 1011.4
20240523200044 77 216 0.0 4.0 0.00 0.81 0.81 79 1011.5
20240523194543 77 130 0.0 4.0 0.00 0.81 0.81 79 1011.7
20240523193023 76 258 0.0 2.0 0.00 0.81 0.81 81 1012.0
20240523191523 76 104 0.0 3.0 0.00 0.81 0.81 82 1012.1
20240523190002 75 255 0.0 2.0 0.00 0.81 0.81 83 1012.3
20240523184600 75 172 0.0 3.0 0.00 0.81 0.81 84 1012.6
20240523183041 74 296 0.0 4.0 0.00 0.81 0.81 83 1012.6
20240523181542 74 41 0.0 3.0 0.00 0.81 0.81 84 1012.6
20240523180023 74 22 1.0 4.0 0.00 0.81 0.81 85 1012.2
20240523174528 74 282 0.0 4.0 0.00 0.81 0.81 86 1012.2
20240523173006 75 96 0.0 3.0 0.00 0.81 0.81 89 1012.4
20240523171502 72 263 0.0 3.0 0.00 0.81 0.81 91 1012.3
20240523170041 71 22 0.0 3.0 0.01 0.81 0.81 93 1012.0
20240523164539 69 127 0.0 2.0 0.07 0.81 0.81 94 1011.5
20240523163020 69 240 0.0 1.0 0.12 0.81 0.81 95 1012.7
20240523161530 67 274 0.0 3.0 0.35 0.81 0.81 95 1013.0
20240523160106 65 319 0.0 7.0 0.43 0.80 0.80 95 1012.3
20240523154601 65 72 1.0 4.0 0.69 0.74 0.74 95 1013.4
20240523153041 65 181 1.0 3.0 0.69 0.69 0.69 95 1014.4
20240523151540 65 155 0.0 1.0 0.46 0.46 0.46 94 1014.5
20240523150020 66 69 0.0 2.0 0.36 0.36 0.36 93 1013.1
20240523144518 67 248 2.0 7.0 0.03 0.03 0.03 90 1013.9
20240523143100 68 118 0.0 2.0 0.00 0.00 0.00 89 1011.5
20240523141611 68 74 0.0 1.0 0.00 0.00 0.00 89 1011.9
20240523140046 68 105 0.0 2.0 0.00 0.00 0.00 89 1012.1
20240523134545 68 103 0.0 1.0 0.00 0.00 0.00 87 1012.3
20240523133049 67 131 0.0 0.0 0.00 0.00 0.00 88 1012.4
20240523131544 67 221 0.0 0.0 0.00 0.00 0.00 87 1012.5
20240523130042 67 302 0.0 3.0 0.00 0.00 0.00 86 1012.6
20240523124544 68 280 0.0 1.0 0.00 0.00 0.00 86 1012.4
20240523123041 68 219 0.0 4.0 0.00 0.00 0.00 84 1012.5
20240523121541 69 267 0.0 5.0 0.00 0.00 0.00 84 1012.4
20240523120025 69 83 0.0 3.0 0.00 0.00 0.00 83 1012.4
20240523114521 69 199 0.0 5.0 0.00 0.00 0.00 84 1012.3
20240523113007 68 257 0.0 2.0 0.00 0.00 0.00 83 1012.2
20240523111507 68 145 0.0 2.0 0.00 0.00 0.00 84 1012.0
20240523110003 67 72 0.0 2.0 0.00 0.00 0.00 86 1012.1
20240523104559 65 108 0.0 1.0 0.00 0.00 0.00 89 1012.0
20240523103101 63 129 0.0 0.0 0.00 0.00 0.00 92 1012.2
20240523101605 62 203 0.0 0.0 0.00 0.00 0.00 92 1012.3
20240523100055 63 160 0.0 0.0 0.00 0.00 0.00 92 1012.5